QPF
0.00 0.00 0.00 0.00 0.00 0.00 0.00 0.00 0.00 0.00 0.01 0.01 0.02 0.03 0.02 0.00 0.00 0.00 0.00 0.00 0.00 0.01 0.02 0.02 0.03 0.05 0.06 0.04 0.03 0.03 0.04 0.05 0.05 0.06 0.08 0.09 0.10 0.11 0.10 0.10 0.07 0.06 0.09 0.08
0.00 0.00 0.00 0.00 0.00 0.00 0.00 0.00 0.00 0.00 0.02 0.01 0.01 0.01 0.01 0.00 0.00 0.01 0.00 0.01 0.01 0.03 0.03 0.03 0.04 0.04 0.04 0.07 0.05 0.03 0.03 0.04 0.04 0.06 0.08 0.09 0.11 0.11 0.11 0.09 0.09 0.09 0.09 0.09
0.00 0.00 0.00 0.00 0.00 0.00 0.00 0.00 0.00 0.01 0.02 0.02 0.03 0.01 0.01 0.00 0.01 0.01 0.01 0.03 0.04 0.05 0.04 0.03 0.03 0.03 0.02 0.03 0.04 0.03 0.03 0.04 0.03 0.05 0.05 0.06 0.09 0.11 0.12 0.11 0.10 0.10 0.10 0.10
0.00 0.00 0.00 0.00 0.00 0.00 0.00 0.00 0.00 0.02 0.02 0.01 0.02 0.01 0.01 0.00 0.00 0.01 0.03 0.04 0.05 0.05 0.03 0.02 0.01 0.01 0.02 0.02 0.02 0.03 0.02 0.02 0.01 0.02 0.02 0.04 0.07 0.10 0.11 0.14 0.14 0.11 0.08 0.08
0.00 0.01 0.00 0.00 0.00 0.00 0.00 0.00 0.00 0.01 0.01 0.01 0.00 0.00 0.01 0.01 0.01 0.01 0.01 0.02 0.02 0.02 0.02 0.02 0.01 0.01 0.02 0.02 0.01 0.01 0.01 0.01 0.02 0.01 0.02 0.04 0.06 0.09 0.10 0.09 0.12 0.15 0.11 0.09
0.00 0.01 0.02 0.01 0.00 0.00 0.00 0.01 0.00 0.00 0.00 0.01 0.00 0.03 0.04 0.02 0.02 0.02 0.01 0.01 0.01 0.01 0.01 0.01 0.01 0.01 0.01 0.01 0.01 0.01 0.02 0.03 0.03 0.03 0.03 0.04 0.05 0.07 0.09 0.08 0.07 0.09 0.09 0.07
0.00 0.01 0.02 0.01 0.00 0.01 0.01 0.03 0.01 0.00 0.01 0.00 0.01 0.02 0.04 0.05 0.03 0.02 0.01 0.01 0.01 0.00 0.00 0.01 0.01 0.01 0.02 0.02 0.02 0.02 0.03 0.03 0.03 0.04 0.05 0.06 0.05 0.05 0.05 0.07 0.08 0.07 0.06 0.06
0.01 0.03 0.05 0.02 0.01 0.02 0.03 0.01 0.00 0.00 0.00 0.00 0.01 0.01 0.02 0.03 0.03 0.02 0.02 0.02 0.01 0.01 0.01 0.01 0.01 0.02 0.03 0.03 0.03 0.03 0.04 0.05 0.05 0.06 0.08 0.08 0.06 0.04 0.04 0.06 0.06 0.06 0.06 0.05
0.03 0.06 0.04 0.03 0.03 0.02 0.00 0.00 0.00 0.01 0.00 0.00 0.01 0.01 0.02 0.01 0.01 0.01 0.02 0.02 0.02 0.01 0.02 0.02 0.03 0.03 0.03 0.03 0.03 0.03 0.04 0.06 0.06 0.06 0.08 0.09 0.08 0.06 0.06 0.06 0.06 0.06 0.06 0.05
0.04 0.06 0.03 0.03 0.04 0.01 0.00 0.00 0.01 0.02 0.01 0.00 0.01 0.01 0.02 0.01 0.01 0.02 0.03 0.03 0.04 0.03 0.03 0.03 0.03 0.03 0.04 0.03 0.03 0.03 0.04 0.06 0.07 0.07 0.07 0.07 0.07 0.07 0.07 0.06 0.05 0.05 0.06 0.06
0.08 0.08 0.05 0.03 0.02 0.01 0.00 0.00 0.01 0.01 0.01 0.00 0.01 0.01 0.01 0.01 0.01 0.02 0.04 0.04 0.04 0.04 0.03 0.03 0.02 0.03 0.04 0.04 0.04 0.05 0.06 0.06 0.06 0.06 0.05 0.05 0.05 0.05 0.05 0.05 0.05 0.03 0.04 0.03
0.09 0.06 0.05 0.03 0.01 0.00 0.00 0.00 0.00 0.00 0.01 0.01 0.01 0.01 0.01 0.01 0.02 0.03 0.04 0.04 0.05 0.04 0.03 0.03 0.03 0.02 0.03 0.04 0.05 0.06 0.05 0.04 0.04 0.04 0.04 0.03 0.03 0.02 0.02 0.02 0.02 0.01 0.01 0.01
0.04 0.03 0.02 0.01 0.00 0.00 0.00 0.00 0.00 0.01 0.01 0.02 0.02 0.01 0.01 0.01 0.01 0.02 0.02 0.02 0.03 0.03 0.02 0.02 0.02 0.02 0.03 0.04 0.04 0.04 0.04 0.04 0.04 0.04 0.03 0.03 0.02 0.02 0.01 0.01 0.01 0.02 0.02 0.02
0.02 0.02 0.01 0.01 0.01 0.01 0.02 0.01 0.01 0.01 0.02 0.04 0.04 0.03 0.02 0.01 0.01 0.02 0.02 0.02 0.02 0.02 0.02 0.02 0.02 0.02 0.02 0.02 0.02 0.02 0.03 0.03 0.04 0.03 0.02 0.01 0.01 0.01 0.02 0.02 0.01 0.01 0.01 0.02
0.03 0.03 0.02 0.02 0.03 0.03 0.02 0.02 0.02 0.03 0.03 0.03 0.04 0.03 0.02 0.02 0.02 0.01 0.02 0.02 0.03 0.03 0.02 0.02 0.02 0.02 0.02 0.02 0.01 0.01 0.02 0.02 0.02 0.02 0.02 0.01 0.01 0.01 0.01 0.01 0.00 0.01 0.01 0.01
0.03 0.04 0.04 0.03 0.04 0.03 0.02 0.02 0.03 0.03 0.03 0.02 0.02 0.02 0.02 0.02 0.01 0.01 0.02 0.02 0.03 0.04 0.03 0.02 0.02 0.02 0.02 0.02 0.02 0.02 0.02 0.02 0.02 0.02 0.01 0.01 0.01 0.00 0.00 0.00 0.00 0.01 0.01 0.01
0.03 0.04 0.04 0.05 0.04 0.02 0.02 0.02 0.03 0.03 0.03 0.02 0.02 0.03 0.04 0.03 0.02 0.02 0.02 0.02 0.03 0.03 0.03 0.02 0.02 0.02 0.02 0.02 0.03 0.02 0.02 0.02 0.02 0.02 0.02 0.02 0.01 0.00 0.00 0.00 0.00 0.00 0.00 0.00
0.04 0.03 0.03 0.03 0.03 0.03 0.03 0.03 0.05 0.04 0.04 0.03 0.03 0.03 0.04 0.04 0.03 0.03 0.02 0.02 0.03 0.03 0.02 0.02 0.02 0.02 0.01 0.01 0.02 0.02 0.02 0.01 0.01 0.01 0.01 0.00 0.00 0.00 0.00 0.00 0.00 0.00 0.00 0.00
0.04 0.02 0.02 0.02 0.04 0.05 0.05 0.06 0.05 0.05 0.06 0.05 0.04 0.04 0.04 0.04 0.03 0.03 0.03 0.03 0.03 0.03 0.03 0.03 0.03 0.02 0.02 0.01 0.01 0.01 0.01 0.01 0.01 0.00 0.00 0.00 0.00 0.00 0.00 0.00 0.00 0.00 0.00 0.00
0.04 0.04 0.04 0.04 0.06 0.07 0.05 0.04 0.05 0.07 0.08 0.07 0.06 0.04 0.04 0.04 0.04 0.04 0.03 0.04 0.03 0.03 0.03 0.03 0.02 0.02 0.02 0.02 0.02 0.01 0.01 0.01 0.01 0.01 0.01 0.01 0.01 0.00 0.00 0.00 0.00 0.00 0.00 0.01
0.03 0.05 0.06 0.05 0.05 0.05 0.04 0.02 0.03 0.06 0.07 0.07 0.06 0.04 0.04 0.04 0.05 0.04 0.04 0.05 0.05 0.03 0.02 0.02 0.02 0.02 0.02 0.02 0.02 0.02 0.02 0.02 0.02 0.01 0.01 0.01 0.00 0.00 0.00 0.00 0.00 0.00 0.00 0.00
0.05 0.06 0.05 0.05 0.04 0.05 0.04 0.04 0.04 0.04 0.06 0.06 0.06 0.05 0.05 0.05 0.05 0.04 0.04 0.04 0.04 0.04 0.03 0.02 0.01 0.01 0.01 0.01 0.01 0.01 0.01 0.01 0.01 0.01 0.01 0.00 0.00 0.00 0.00 0.00 0.00 0.00 0.00 0.00
0.09 0.09 0.07 0.05 0.05 0.06 0.06 0.06 0.06 0.05 0.05 0.06 0.06 0.06 0.05 0.05 0.05 0.05 0.05 0.04 0.03 0.03 0.02 0.02 0.01 0.01 0.00 0.00 0.00 0.00 0.00 0.00 0.00 0.00 0.00 0.00 0.00 0.00 0.00 0.00 0.00 0.00 0.00 0.00
0.09 0.09 0.08 0.06 0.06 0.07 0.09 0.08 0.06 0.05 0.05 0.05 0.05 0.06 0.05 0.04 0.05 0.05 0.05 0.04 0.03 0.02 0.02 0.02 0.02 0.01 0.01 0.00 0.00 0.00 0.00 0.00 0.00 0.00 0.00 0.00 0.00 0.00 0.00 0.00 0.00 0.00 0.00 0.01
0.09 0.07 0.06 0.05 0.05 0.06 0.07 0.07 0.06 0.05 0.04 0.04 0.04 0.04 0.04 0.03 0.04 0.04 0.04 0.03 0.02 0.02 0.01 0.01 0.01 0.01 0.01 0.00 0.00 0.00 0.00 0.00 0.00 0.00 0.00 0.00 0.00 0.00 0.00 0.00 0.01 0.01 0.01 0.01
0.10 0.09 0.07 0.06 0.05 0.04 0.04 0.04 0.04 0.04 0.03 0.03 0.02 0.02 0.01 0.02 0.02 0.02 0.02 0.01 0.01 0.01 0.01 0.01 0.01 0.01 0.01 0.00 0.00 0.00 0.00 0.00 0.00 0.00 0.00 0.00 0.00 0.00 0.00 0.00 0.01 0.01 0.01 0.01
0.10 0.08 0.07 0.06 0.06 0.05 0.04 0.03 0.03 0.03 0.02 0.02 0.02 0.01 0.01 0.01 0.01 0.02 0.01 0.01 0.02 0.02 0.02 0.02 0.01 0.01 0.01 0.01 0.00 0.00 0.00 0.00 0.00 0.00 0.00 0.00 0.00 0.00 0.00 0.00 0.00 0.00 0.00 0.00
MSLP
1006.61 1006.93 1007.22 1007.47 1007.68 1007.83 1007.88 1007.81 1007.62 1007.30 1006.88 1006.39 1005.88 1005.39 1004.98 1004.68 1004.51 1004.48 1004.59 1004.82 1005.15 1005.57 1006.06 1006.60 1007.20 1007.84 1008.50 1009.16 1009.80 1010.38 1010.89 1011.30 1011.60 1011.81 1011.95 1012.07 1012.19 1012.37 1012.64 1013.01 1013.48 1014.03 1014.61 1015.18
1006.67 1006.85 1006.96 1007.02 1007.03 1006.99 1006.90 1006.75 1006.54 1006.27 1005.95 1005.61 1005.27 1004.96 1004.71 1004.55 1004.49 1004.55 1004.71 1004.99 1005.37 1005.83 1006.36 1006.96 1007.60 1008.27 1008.94 1009.59 1010.19 1010.72 1011.15 1011.47 1011.70 1011.86 1011.96 1012.07 1012.22 1012.44 1012.77 1013.20 1013.73 1014.33 1014.96 1015.56
1006.82 1006.83 1006.76 1006.63 1006.45 1006.24 1006.03 1005.80 1005.56 1005.33 1005.09 1004.85 1004.64 1004.46 1004.33 1004.27 1004.29 1004.41 1004.62 1004.94 1005.36 1005.87 1006.47 1007.12 1007.82 1008.54 1009.24 1009.90 1010.49 1010.98 1011.36 1011.64 1011.82 1011.93 1012.02 1012.14 1012.31 1012.58 1012.96 1013.45 1014.03 1014.67 1015.33 1015.95
1007.04 1006.89 1006.64 1006.34 1006.00 1005.66 1005.34 1005.05 1004.80 1004.58 1004.39 1004.23 1004.10 1004.00 1003.95 1003.94 1004.01 1004.15 1004.39 1004.73 1005.18 1005.73 1006.37 1007.08 1007.84 1008.61 1009.35 1010.04 1010.64 1011.13 1011.50 1011.76 1011.94 1012.05 1012.16 1012.29 1012.51 1012.82 1013.24 1013.77 1014.39 1015.05 1015.71 1016.33
1007.32 1007.01 1006.61 1006.16 1005.71 1005.28 1004.90 1004.58 1004.32 1004.13 1003.98 1003.88 1003.80 1003.75 1003.72 1003.74 1003.81 1003.94 1004.17 1004.50 1004.94 1005.50 1006.16 1006.90 1007.70 1008.51 1009.31 1010.03 1010.67 1011.19 1011.59 1011.88 1012.09 1012.24 1012.39 1012.58 1012.84 1013.20 1013.66 1014.22 1014.84 1015.50 1016.14 1016.73
1007.59 1007.16 1006.66 1006.13 1005.61 1005.15 1004.75 1004.44 1004.21 1004.06 1003.96 1003.89 1003.85 1003.83 1003.82 1003.82 1003.87 1003.97 1004.15 1004.44 1004.84 1005.36 1006.00 1006.74 1007.54 1008.37 1009.19 1009.96 1010.64 1011.22 1011.68 1012.04 1012.32 1012.56 1012.78 1013.04 1013.36 1013.77 1014.26 1014.82 1015.43 1016.06 1016.66 1017.21
1007.84 1007.33 1006.78 1006.23 1005.72 1005.28 1004.93 1004.67 1004.50 1004.40 1004.36 1004.35 1004.35 1004.35 1004.34 1004.33 1004.34 1004.39 1004.50 1004.71 1005.04 1005.48 1006.05 1006.73 1007.49 1008.31 1009.13 1009.92 1010.65 1011.30 1011.85 1012.31 1012.70 1013.04 1013.37 1013.72 1014.11 1014.56 1015.07 1015.63 1016.21 1016.79 1017.33 1017.80
1008.03 1007.51 1006.97 1006.47 1006.03 1005.67 1005.41 1005.24 1005.17 1005.16 1005.20 1005.25 1005.30 1005.33 1005.33 1005.31 1005.28 1005.27 1005.31 1005.43 1005.65 1005.99 1006.45 1007.03 1007.71 1008.46 1009.25 1010.04 1010.81 1011.52 1012.16 1012.73 1013.24 1013.71 1014.16 1014.61 1015.07 1015.57 1016.09 1016.63 1017.17 1017.69 1018.15 1018.54
1008.16 1007.68 1007.23 1006.84 1006.51 1006.28 1006.14 1006.10 1006.14 1006.24 1006.37 1006.50 1006.61 1006.69 1006.71 1006.70 1006.65 1006.60 1006.57 1006.60 1006.70 1006.92 1007.25 1007.70 1008.26 1008.92 1009.64 1010.41 1011.18 1011.93 1012.65 1013.33 1013.97 1014.56 1015.12 1015.67 1016.21 1016.75 1017.28 1017.80 1018.29 1018.73 1019.11 1019.42
1008.23 1007.86 1007.54 1007.29 1007.12 1007.04 1007.05 1007.15 1007.31 1007.51 1007.74 1007.95 1008.14 1008.27 1008.35 1008.36 1008.32 1008.26 1008.18 1008.14 1008.14 1008.24 1008.43 1008.74 1009.17 1009.71 1010.34 1011.04 1011.79 1012.57 1013.34 1014.10 1014.84 1015.54 1016.21 1016.84 1017.45 1018.01 1018.55 1019.04 1019.47 1019.84 1020.15 1020.37
1008.27 1008.04 1007.89 1007.80 1007.80 1007.87 1008.03 1008.24 1008.51 1008.81 1009.13 1009.42 1009.68 1009.89 1010.02 1010.09 1010.10 1010.05 1009.97 1009.88 1009.83 1009.83 1009.90 1010.08 1010.38 1010.79 1011.31 1011.93 1012.63 1013.39 1014.19 1015.00 1015.80 1016.58 1017.32 1018.02 1018.66 1019.25 1019.78 1020.23 1020.62 1020.93 1021.16 1021.32
1008.29 1008.23 1008.24 1008.32 1008.47 1008.69 1008.95 1009.27 1009.62 1009.99 1010.36 1010.72 1011.05 1011.32 1011.54 1011.68 1011.75 1011.76 1011.72 1011.64 1011.57 1011.51 1011.51 1011.59 1011.77 1012.07 1012.48 1013.01 1013.64 1014.35 1015.13 1015.95 1016.77 1017.59 1018.37 1019.10 1019.76 1020.35 1020.86 1021.29 1021.63 1021.89 1022.06 1022.16
1008.32 1008.42 1008.58 1008.81 1009.09 1009.41 1009.76 1010.14 1010.53 1010.94 1011.35 1011.75 1012.12 1012.46 1012.75 1012.98 1013.14 1013.23 1013.26 1013.24 1013.19 1013.14 1013.10 1013.12 1013.22 1013.42 1013.74 1014.17 1014.72 1015.37 1016.10 1016.88 1017.69 1018.50 1019.28 1020.01 1020.67 1021.24 1021.72 1022.12 1022.42 1022.64 1022.78 1022.84
1008.39 1008.61 1008.90 1009.24 1009.62 1010.01 1010.40 1010.81 1011.22 1011.63 1012.05 1012.46 1012.87 1013.26 1013.62 1013.93 1014.19 1014.39 1014.51 1014.58 1014.59 1014.57 1014.55 1014.55 1014.61 1014.74 1014.98 1015.32 1015.79 1016.36 1017.02 1017.74 1018.51 1019.28 1020.02 1020.72 1021.35 1021.89 1022.34 1022.70 1022.98 1023.16 1023.28 1023.33
1008.49 1008.81 1009.20 1009.62 1010.05 1010.48 1010.90 1011.31 1011.71 1012.11 1012.51 1012.93 1013.35 1013.77 1014.19 1014.58 1014.93 1015.23 1015.46 1015.62 1015.71 1015.76 1015.78 1015.79 1015.83 1015.93 1016.11 1016.39 1016.78 1017.27 1017.84 1018.49 1019.18 1019.89 1020.58 1021.22 1021.81 1022.31 1022.73 1023.07 1023.31 1023.49 1023.59 1023.65
1008.64 1009.02 1009.47 1009.94 1010.41 1010.86 1011.29 1011.69 1012.08 1012.47 1012.86 1013.26 1013.69 1014.13 1014.59 1015.03 1015.46 1015.84 1016.16 1016.41 1016.58 1016.70 1016.77 1016.81 1016.86 1016.95 1017.09 1017.32 1017.63 1018.04 1018.54 1019.11 1019.72 1020.35 1020.97 1021.56 1022.09 1022.56 1022.95 1023.26 1023.49 1023.66 1023.77 1023.83
1008.83 1009.25 1009.73 1010.23 1010.73 1011.21 1011.65 1012.06 1012.45 1012.82 1013.20 1013.61 1014.03 1014.49 1014.96 1015.44 1015.90 1016.33 1016.71 1017.03 1017.26 1017.44 1017.55 1017.63 1017.69 1017.77 1017.89 1018.07 1018.34 1018.68 1019.10 1019.59 1020.13 1020.69 1021.24 1021.77 1022.26 1022.69 1023.06 1023.35 1023.58 1023.76 1023.88 1023.96
1009.05 1009.50 1010.00 1010.53 1011.06 1011.57 1012.04 1012.47 1012.88 1013.27 1013.67 1014.07 1014.50 1014.95 1015.43 1015.91 1016.38 1016.83 1017.22 1017.56 1017.83 1018.03 1018.17 1018.26 1018.33 1018.41 1018.51 1018.67 1018.89 1019.18 1019.54 1019.96 1020.43 1020.93 1021.43 1021.92 1022.37 1022.77 1023.12 1023.41 1023.65 1023.84 1023.98 1024.09
1009.31 1009.76 1010.29 1010.85 1011.42 1011.97 1012.50 1012.98 1013.44 1013.87 1014.30 1014.72 1015.15 1015.60 1016.06 1016.52 1016.97 1017.39 1017.76 1018.08 1018.34 1018.53 1018.67 1018.76 1018.83 1018.90 1018.99 1019.12 1019.31 1019.56 1019.88 1020.25 1020.67 1021.12 1021.58 1022.03 1022.46 1022.85 1023.20 1023.50 1023.75 1023.95 1024.11 1024.24
1009.58 1010.05 1010.60 1011.20 1011.82 1012.43 1013.02 1013.58 1014.10 1014.60 1015.06 1015.52 1015.96 1016.40 1016.84 1017.26 1017.66 1018.03 1018.35 1018.62 1018.83 1018.99 1019.10 1019.17 1019.23 1019.29 1019.36 1019.48 1019.65 1019.87 1020.16 1020.50 1020.88 1021.29 1021.72 1022.15 1022.57 1022.96 1023.31 1023.62 1023.88 1024.11 1024.29 1024.44
1009.86 1010.35 1010.93 1011.57 1012.24 1012.92 1013.59 1014.22 1014.82 1015.37 1015.89 1016.38 1016.84 1017.27 1017.67 1018.05 1018.39 1018.69 1018.95 1019.15 1019.31 1019.42 1019.49 1019.54 1019.58 1019.62 1019.69 1019.80 1019.95 1020.16 1020.42 1020.74 1021.10 1021.49 1021.90 1022.31 1022.72 1023.10 1023.46 1023.78 1024.06 1024.30 1024.49 1024.65
1010.14 1010.66 1011.27 1011.95 1012.67 1013.41 1014.14 1014.84 1015.50 1016.11 1016.68 1017.19 1017.66 1018.08 1018.46 1018.79 1019.08 1019.31 1019.51 1019.65 1019.75 1019.82 1019.86 1019.89 1019.91 1019.95 1020.02 1020.12 1020.27 1020.47 1020.73 1021.03 1021.36 1021.73 1022.12 1022.52 1022.91 1023.29 1023.65 1023.97 1024.26 1024.50 1024.70 1024.87
1010.45 1010.99 1011.63 1012.34 1013.10 1013.87 1014.63 1015.38 1016.08 1016.73 1017.32 1017.86 1018.33 1018.74 1019.09 1019.39 1019.64 1019.83 1019.97 1020.08 1020.15 1020.19 1020.22 1020.24 1020.27 1020.32 1020.39 1020.51 1020.66 1020.86 1021.10 1021.39 1021.71 1022.05 1022.42 1022.79 1023.16 1023.52 1023.86 1024.18 1024.46 1024.70 1024.90 1025.06
1010.80 1011.37 1012.02 1012.75 1013.51 1014.28 1015.06 1015.80 1016.51 1017.17 1017.77 1018.31 1018.78 1019.18 1019.52 1019.80 1020.02 1020.19 1020.32 1020.41 1020.48 1020.53 1020.57 1020.61 1020.66 1020.74 1020.84 1020.97 1021.14 1021.34 1021.57 1021.84 1022.13 1022.45 1022.78 1023.11 1023.45 1023.78 1024.10 1024.39 1024.66 1024.89 1025.08 1025.22
1011.23 1011.82 1012.48 1013.19 1013.92 1014.67 1015.41 1016.13 1016.81 1017.45 1018.03 1018.55 1019.01 1019.41 1019.74 1020.01 1020.24 1020.41 1020.56 1020.67 1020.76 1020.84 1020.92 1021.00 1021.10 1021.22 1021.35 1021.51 1021.69 1021.90 1022.12 1022.37 1022.63 1022.91 1023.20 1023.49 1023.78 1024.07 1024.35 1024.61 1024.85 1025.06 1025.23 1025.36
1011.79 1012.38 1013.02 1013.69 1014.38 1015.07 1015.75 1016.40 1017.03 1017.62 1018.16 1018.65 1019.09 1019.47 1019.81 1020.09 1020.33 1020.54 1020.72 1020.87 1021.01 1021.15 1021.28 1021.42 1021.57 1021.74 1021.91 1022.10 1022.30 1022.51 1022.72 1022.95 1023.18 1023.41 1023.65 1023.89 1024.14 1024.37 1024.61 1024.83 1025.04 1025.22 1025.37 1025.49
1012.48 1013.07 1013.67 1014.29 1014.90 1015.51 1016.11 1016.68 1017.23 1017.76 1018.25 1018.70 1019.11 1019.49 1019.82 1020.12 1020.39 1020.64 1020.86 1021.06 1021.26 1021.45 1021.65 1021.85 1022.05 1022.26 1022.47 1022.69 1022.90 1023.11 1023.32 1023.52 1023.72 1023.91 1024.10 1024.30 1024.49 1024.68 1024.87 1025.05 1025.22 1025.38 1025.51 1025.62
Thickness
5783 5798 5799 5794 5795 5802 5801 5804 5799 5806 5808 5813 5821 5823 5824 5825 5824 5821 5817 5814 5812 5809 5807 5807 5805 5804 5802 5799 5797 5794 5789 5784 5780 5779 5777 5774 5771 5769 5766 5764 5762 5760 5758 5756
5770 5790 5797 5794 5798 5802 5804 5807 5808 5811 5810 5825 5826 5824 5818 5818 5816 5810 5808 5806 5805 5803 5800 5799 5798 5797 5795 5792 5790 5788 5783 5779 5777 5775 5772 5769 5765 5763 5760 5758 5756 5754 5752 5750
5756 5779 5784 5774 5793 5798 5801 5810 5809 5800 5807 5817 5812 5810 5809 5811 5809 5803 5801 5799 5797 5795 5792 5792 5792 5792 5788 5786 5784 5781 5777 5774 5771 5769 5766 5763 5761 5757 5754 5751 5749 5748 5746 5743
5751 5758 5743 5780 5811 5809 5803 5806 5811 5810 5812 5811 5806 5807 5810 5809 5803 5798 5796 5793 5791 5789 5787 5788 5788 5786 5784 5782 5779 5775 5771 5768 5766 5763 5760 5757 5754 5750 5747 5745 5743 5741 5739 5737
5741 5741 5752 5777 5797 5801 5792 5791 5807 5803 5804 5805 5806 5799 5795 5801 5799 5794 5791 5788 5787 5786 5784 5782 5781 5780 5778 5775 5772 5768 5764 5761 5759 5757 5753 5750 5747 5744 5741 5738 5736 5733 5730 5728
5733 5730 5733 5762 5793 5806 5794 5771 5798 5799 5795 5795 5795 5777 5775 5789 5789 5786 5785 5783 5782 5781 5778 5774 5773 5772 5768 5765 5761 5758 5756 5754 5753 5751 5748 5744 5741 5738 5735 5732 5729 5726 5722 5719
5726 5727 5740 5769 5788 5792 5759 5758 5789 5793 5789 5788 5784 5780 5777 5779 5779 5777 5776 5775 5774 5772 5768 5765 5765 5763 5758 5755 5751 5751 5750 5748 5745 5743 5741 5738 5735 5732 5728 5725 5721 5718 5714 5711
5724 5718 5723 5763 5771 5762 5759 5777 5783 5784 5785 5781 5777 5775 5772 5769 5767 5767 5766 5765 5764 5761 5758 5757 5756 5753 5747 5744 5743 5743 5741 5738 5735 5734 5733 5730 5726 5723 5720 5717 5713 5709 5706 5703
5730 5726 5741 5754 5755 5760 5770 5768 5770 5773 5774 5772 5768 5763 5761 5760 5759 5758 5757 5756 5755 5752 5748 5747 5746 5743 5737 5735 5735 5733 5730 5727 5725 5723 5721 5719 5717 5714 5711 5708 5705 5701 5697 5693
5723 5728 5738 5744 5749 5755 5760 5760 5764 5765 5764 5763 5758 5755 5752 5750 5748 5747 5747 5746 5745 5742 5738 5735 5734 5733 5730 5728 5727 5724 5720 5717 5714 5712 5709 5706 5704 5702 5699 5696 5695 5692 5688 5684
5712 5718 5726 5730 5737 5745 5750 5753 5753 5754 5754 5753 5750 5746 5743 5740 5738 5738 5737 5736 5735 5731 5728 5725 5724 5723 5721 5720 5717 5714 5710 5707 5704 5700 5696 5691 5687 5683 5682 5678 5679 5680 5677 5674
5702 5713 5715 5717 5730 5738 5738 5739 5742 5742 5742 5743 5741 5737 5734 5731 5730 5729 5727 5726 5723 5721 5718 5716 5715 5713 5711 5710 5708 5704 5700 5697 5694 5691 5686 5682 5677 5670 5665 5666 5665 5665 5663 5661
5710 5715 5717 5718 5724 5729 5730 5731 5733 5733 5732 5730 5730 5729 5726 5723 5721 5719 5718 5716 5714 5712 5710 5707 5705 5703 5702 5701 5699 5696 5692 5688 5685 5682 5678 5674 5670 5665 5660 5654 5652 5651 5650 5648
5706 5708 5705 5709 5713 5718 5721 5723 5723 5723 5722 5721 5720 5719 5717 5714 5711 5709 5707 5706 5705 5703 5701 5699 5696 5693 5692 5691 5689 5687 5684 5680 5677 5674 5671 5667 5663 5660 5656 5652 5647 5642 5638 5636
5695 5699 5699 5702 5705 5707 5710 5711 5710 5709 5710 5710 5710 5709 5706 5703 5700 5698 5698 5697 5696 5693 5691 5688 5686 5683 5683 5682 5680 5677 5675 5672 5669 5666 5664 5660 5657 5653 5649 5645 5641 5636 5632 5627
5685 5690 5692 5693 5694 5695 5698 5699 5698 5698 5699 5700 5699 5697 5696 5694 5691 5689 5688 5687 5685 5683 5680 5678 5676 5675 5675 5673 5670 5668 5665 5662 5660 5658 5656 5653 5649 5645 5641 5637 5633 5629 5624 5620
5672 5675 5678 5681 5684 5687 5690 5691 5691 5690 5690 5689 5687 5687 5685 5683 5680 5678 5677 5676 5675 5673 5671 5669 5668 5668 5667 5665 5663 5660 5657 5654 5651 5649 5647 5643 5640 5635 5632 5628 5623 5618 5613 5609
5670 5673 5675 5676 5677 5679 5681 5683 5683 5681 5680 5679 5679 5677 5674 5672 5670 5668 5667 5666 5664 5662 5661 5660 5660 5660 5659 5657 5655 5652 5650 5647 5644 5640 5637 5634 5630 5627 5622 5618 5614 5609 5604 5600
5664 5666 5668 5670 5672 5671 5671 5672 5672 5672 5671 5671 5669 5666 5664 5662 5661 5658 5657 5655 5653 5651 5650 5651 5650 5651 5649 5647 5646 5644 5641 5637 5634 5630 5627 5623 5620 5617 5613 5609 5605 5601 5597 5592
5657 5659 5660 5661 5663 5662 5661 5662 5663 5662 5662 5661 5659 5655 5653 5651 5650 5648 5646 5644 5643 5642 5642 5641 5641 5640 5639 5638 5636 5635 5632 5628 5625 5622 5618 5615 5611 5607 5604 5600 5595 5591 5586 5581
5649 5651 5652 5652 5652 5651 5652 5653 5653 5652 5652 5651 5649 5646 5643 5641 5640 5638 5636 5633 5631 5632 5632 5631 5632 5630 5630 5628 5627 5625 5622 5619 5616 5612 5609 5605 5601 5598 5594 5591 5586 5582 5577 5572
5641 5642 5642 5642 5642 5641 5642 5643 5644 5643 5642 5641 5639 5637 5634 5631 5629 5628 5625 5624 5622 5621 5623 5623 5622 5620 5620 5619 5618 5616 5613 5610 5607 5604 5600 5596 5592 5588 5585 5580 5576 5571 5566 5561
5632 5633 5633 5633 5632 5632 5632 5633 5634 5634 5632 5631 5630 5628 5626 5624 5623 5620 5616 5615 5615 5613 5614 5612 5610 5609 5609 5610 5609 5607 5604 5601 5598 5595 5591 5587 5584 5580 5575 5570 5565 5561 5556 5552
5623 5624 5624 5624 5624 5623 5621 5622 5623 5623 5623 5622 5621 5620 5618 5616 5613 5612 5609 5605 5606 5606 5605 5602 5601 5600 5600 5602 5601 5599 5596 5592 5589 5586 5582 5579 5575 5571 5565 5561 5556 5552 5547 5542
5615 5615 5615 5615 5614 5614 5613 5613 5613 5613 5614 5614 5612 5611 5611 5610 5608 5605 5603 5600 5598 5598 5596 5593 5593 5592 5594 5593 5592 5590 5587 5583 5580 5577 5573 5570 5566 5561 5556 5552 5547 5543 5538 5533
5606 5606 5607 5608 5609 5608 5609 5608 5608 5608 5608 5606 5604 5604 5603 5601 5599 5598 5596 5595 5593 5591 5590 5588 5587 5586 5586 5585 5583 5580 5576 5573 5571 5568 5564 5560 5556 5552 5547 5543 5538 5534 5529 5524
5599 5600 5600 5601 5601 5603 5604 5604 5603 5603 5603 5601 5599 5598 5596 5594 5593 5593 5592 5590 5588 5586 5585 5583 5582 5581 5579 5577 5574 5572 5569 5566 5563 5559 5555 5552 5547 5543 5539 5534 5530 5526 5521 5516